Regional Weather Roundup
Issued by NWS

Home | Current Version | Previous Version | Graphics & Text | Print | Product List | Glossary On
Versions: 1 2 3 4 5 6 7 8 9 10 11 12 13 14 15 16 17 18 19 20 21 22 23 24 25 26 27 28 29 30 31 32 33 34 35 36 37 38 39 40 41 42 43 44 45 46 47 48 49 50
000
ASUS45 KCYS 061910
RWRWY

WYOMING REGIONAL WEATHER ROUNDUP
NATIONAL WEATHER SERVICE CHEYENNE WY
100 PM MDT MON JUL 06 2015

NOTE:  "FAIR" INDICATES FEW OR NO CLOUDS BELOW 12,000 FEET
WITH NO SIGNIFICANT WEATHER AND/OR OBSTRUCTIONS TO VISIBILITY.

WYZ001-062000-
YELLOWSTONE NATIONAL PARK

CITY           SKY/WX    TMP DP  RH WIND       PRES   REMARKS
LK YELLOWSTONE   N/A     63  45  51 VRB5      30.37F
W YELLOWSTONE  NOT AVBL

$$
WYZ002>013-054>058-071-098>099-062000-
NORTHERN WYOMING

CITY           SKY/WX    TMP DP  RH WIND       PRES   REMARKS
JACKSON        CLOUDY    59  54  82 SW3       30.30F
CODY           CLOUDY    63  52  67 SE6       30.27F
GREYBULL       FAIR      69  51  52 VRB5      30.22F
WORLAND        CLOUDY    64  51  62 W3        30.25F
SHERIDAN       CLOUDY    58  52  80 N3        30.28F
BUFFALO        CLOUDY    55  52  89 SE6       30.31S FOG
GILLETTE       PTSUNNY   63  51  65 VRB3      30.27F
HULETT         CLOUDY    61  52  72 N7        30.29F
NEWCASTLE      FAIR      66  46  48 W3        30.26F

$$
WYZ014>020-022>026-101>103-062000-
CENTRAL WYOMING

CITY           SKY/WX    TMP DP  RH WIND       PRES   REMARKS
BIG PINEY      FAIR      70  49  47 E6        30.31F
PINEDALE       CLOUDY    64  48  55 CALM      30.32F
DUBOIS         MOCLDY    59  50  72 E13       30.33F
LANDER         CLOUDY    60  54  80 CALM      30.29F
RIVERTON       CLOUDY    64  52  64 VRB6      30.29F
CASPER         PTSUNNY   64  51  62 VRB3      30.30F
DOUGLAS        CLOUDY    58  53  84 E8        30.31S HAZE

$$
WYZ021-027>030-104>119-062000-
SOUTHERN WYOMING

CITY           SKY/WX    TMP DP  RH WIND       PRES   REMARKS
EVANSTON       PTSUNNY   73  52  47 E7        30.29F
KEMMERER       MOCLDY    72  50  46 E6        30.31F
FORT BRIDGER   CLEAR     68  57  68 CALM      30.33F
ROCK SPRINGS   FAIR      70  53  54 E8        30.30F
DIXON          MOCLDY    73  53  48 W7        30.30F
RAWLINS        CLOUDY    65  51  60 VRB6      30.33F
SARATOGA       CLOUDY    68  54  60 N8        30.33F
LARAMIE        CLOUDY    58  51  78 E7        30.35S
CHEYENNE       CLOUDY    56  52  86 NE8       30.34R FOG
TORRINGTON     CLOUDY    64  52  64 NE3       30.27S HAZE
PINE BLUFFS    CLOUDY    57  54  88 N9        30.31S FOG

$$


USA.gov is the U.S. government's official web portal to all federal, state and local government web resources and services.